User: anonymous   Login
Location: Unspecified
(0.0000°N, 0.0000°E)
Time: 10:12:41
(UTC+00:00)
Language:

COSMOS 2490 - Orbit

View from above orbital plane
View from above orbital plane
View from above satellite
View from above satellite

Ground track
Ground track

The orbit data is extracted from the following two-line orbital elements,

1 39485U 13076C   18113.91916133 +.00000001 +00000-0 -68366-4 0  9998
2 39485 082.4836 223.3463 0022569 117.3589 242.9791 12.42890565196364
Epoch (UTC): 23 April 2018 22:03:35
Eccentricity: 0.0022569
inclination: 82.4836°
perigee height: 1476 km
apogee height: 1512 km
right ascension of ascending node: 223.3463°
argument of perigee: 117.3589°
revolutions per day: 12.42890565
mean anomaly at epoch: 242.9791°
orbit number at epoch: 19636

The dashed part of the orbit path shows where the satellite is in the earth's shadow,  

DLR